ARIANE 42P DEB, 47107

Orbit data source: Space-Track

ARIANE 42P DEB, 47107 is space debris in LEO originally from a launch on Mon, 10 Aug 1992 UTC launched from the French Guiana (FRGUI). Debris objects in space refer to the collection of defunct objects orbiting the Earth. Examples of debris include non-operational satellites, rocket bodies, and fragments generated from explosions, collisions, or faulty payload assembly.

Loading next visibility...
Identifier
47107, 1992-052N
Orbit
LEO
Country
Flag of FRFR
Related business
Manufacturer
ArianeGroup
Mission
Spacecraft
Bus & Motor
Unknown
Mass
Unknown
Launch date (UTC)
1992-08-10 (34 years ago)
Launch vehicle
Unknown
Launch site
French Guiana (FRGUI)
Object type
Payload
Rocket body
Debris
Shape & HBR
Unknown shape, 0.1 m
Radar Cross Section
Small (<0.1 m²)

Expand to show TLE details & history
Last TLE update: 4 days ago

TLE from 4 days ago
0 ARIANE 42P DEB
1 47107U 92052N   26090.68016127  .00001208  00000-0  51168-2 0  9999
2 47107  66.0649  83.2850 0108991 323.1382  36.2177 12.84424268296877
Epoch: 2026-03-31T16:19Z
TLE epoch observation values (Epoch: 2026-03-31T16:19:25.933Z)
Latitude
-0.00006°
Longitude
9.37305°
Altitude
1,258.242 km
Speed
7.258 km/s
True Right ascension
05h 33m 08s
True Declination
0° 00' 00"
Sunlit
Object was in daylight at epoch
Visualization orbit readout
Latitude
Unknown
Longitude
Unknown
Altitude
Unknown
Speed
Unknown
Apparent Right ascension
Unknown
Apparent Declination
Unknown
Sunlit
N/A
Visualization observer readout
Local Sidereal Time
19:12:31
Azimuth
Unknown
Elevation
Unknown
Doppler factor
Unknown
Orbital elements
Apogee altitude
1,406.218 km
Perigee altitude
1,238.362 km
Semi-major axis
7,700.427 km
Eccentricity
0.0109
Inclination
66.0649°
RAAN
83.285°
Arg. of periapsis
323.1382°
True anomaly
36.96382°
Mean anomaly
36.2177°
Eccentric anomaly
36.58994°
Mean motion
3.21197 °/min
Orbital period
112.08 mins
BSTAR
0.0051168
Loading maneuver chart data...
Computing Atmospheric mass density...
Loading historical data...
Loading historical data...
Loading historical data...
Loading historical data...
Loading historical data...
Loading historical data...
Loading historical data...

Documentation

Showing up to 5 results
|